Weather History for KLBL - January, 2013

Change the Weather History Date:

Wednesday, January 16, 2013

  Actual Average Record
Temperature  
Mean Temperature 35 °F -  
Max Temperature 53 °F 49 °F 73 °F (1990)
Min Temperature 17 °F 20 °F 2 °F (1984)
Degree Days  
Heating Degree Days 30    
Moisture  
Dew Point 21 °F    
Average Humidity 57    
Maximum Humidity 74    
Minimum Humidity 35    
Precipitation  
Precipitation 0.00 in - - ()
Sea Level Pressure  
Sea Level Pressure 30.17 in    
Wind  
Wind Speed 12 mph (NW)    
Max Wind Speed 23 mph    
Max Gust Speed 28 mph    
Visibility 10 miles    
Events      
Averages and records for this station are not official NWS values.
T = Trace of Precipitation, MM = Missing Value Source: NWS Daily Summary

Daily Weather History Graph

Daily Weather History Graph

Search for Another Location

Airport or City:

Trip Planner

Search our weather history database for the weather conditions in past years. The results will help you decide how hot, cold, wet, or windy it might be!

Date:

Astronomy

Jan. 16, 2013 Rise Set
Actual Time 7:55 AM CST 5:52 PM CST
Civil Twilight 7:27 AM CST 6:20 PM CST
Nautical Twilight 6:55 AM CST 6:52 PM CST
Astronomical Twilight 6:24 AM CST 7:23 PM CST
Moon 10:42 AM CST (1/16) 11:35 PM CST (1/16)
Length of Visible Light 10h 52m
Length of Day
9h 56m
Waxing Crescent, 28% of the Moon is Illuminated
Jan 16
Waxing Crescent
Jan 18
First Quarter
Jan 26
Full
Feb 3
Last Quarter
Feb 10
New

Hourly Weather History & Observations

Time (CST) Temp. Windchill Dew Point Humidity Pressure Visibility Wind Dir Wind Speed Gust Speed Precip Events Conditions
12:15 AM 17.6 °F 6.4 °F 10.4 °F 73% 30.15 in 10.0 mi WSW 9.2 mph - N/A   Scattered Clouds
12:35 AM 17.6 °F 7.3 °F 10.4 °F 73% 30.15 in 10.0 mi WSW 8.1 mph - N/A   Scattered Clouds
12:55 AM 19.4 °F 9.5 °F 12.2 °F 74% 30.15 in 10.0 mi WSW 8.1 mph - N/A   Mostly Cloudy
1:15 AM 17.6 °F 6.4 °F 10.4 °F 73% 30.14 in 10.0 mi WSW 9.2 mph - N/A   Partly Cloudy
1:35 AM 17.6 °F 6.4 °F 8.6 °F 68% 30.13 in 10.0 mi WSW 9.2 mph - N/A   Clear
1:55 AM 17.6 °F 7.3 °F 10.4 °F 73% 30.13 in 10.0 mi WSW 8.1 mph - N/A   Clear
2:15 AM 17.6 °F 6.4 °F 10.4 °F 73% 30.13 in 10.0 mi West 9.2 mph - N/A   Clear
2:35 AM 17.6 °F 6.4 °F 10.4 °F 73% 30.13 in 10.0 mi West 9.2 mph - N/A   Clear
2:55 AM 17.6 °F 6.4 °F 10.4 °F 73% 30.12 in 10.0 mi West 9.2 mph - N/A   Clear
3:15 AM 17.6 °F 6.4 °F 10.4 °F 73% 30.12 in 10.0 mi West 9.2 mph - N/A   Clear
3:35 AM 19.4 °F 7.9 °F 10.4 °F 68% 30.12 in 10.0 mi West 10.4 mph - N/A   Clear
3:55 AM 19.4 °F 7.9 °F 12.2 °F 74% 30.11 in 10.0 mi West 10.4 mph - N/A   Mostly Cloudy
4:15 AM 23.0 °F 12.4 °F 14.0 °F 68% 30.11 in 10.0 mi WNW 10.4 mph - N/A   Overcast
4:35 AM 26.6 °F 16.8 °F 17.6 °F 69% 30.10 in 10.0 mi WNW 10.4 mph - N/A   Overcast
4:55 AM 26.6 °F 18.2 °F 17.6 °F 69% 30.10 in 10.0 mi WNW 8.1 mph - N/A   Overcast
5:15 AM 28.4 °F 19.1 °F 17.6 °F 64% 30.09 in 10.0 mi WNW 10.4 mph - N/A   Overcast
5:35 AM 28.4 °F 19.1 °F 19.4 °F 69% 30.08 in 10.0 mi WNW 10.4 mph - N/A   Overcast
5:55 AM 28.4 °F 19.7 °F 19.4 °F 69% 30.08 in 10.0 mi WNW 9.2 mph - N/A   Overcast
6:35 AM 30.2 °F 19.8 °F 19.4 °F 64% 30.09 in 10.0 mi NW 13.8 mph - N/A   Overcast
6:55 AM 32.0 °F 22.5 °F 21.2 °F 64% 30.10 in 10.0 mi NW 12.7 mph - N/A   Overcast
7:15 AM 33.8 °F 25.3 °F 21.2 °F 60% 30.11 in 10.0 mi NW 11.5 mph - N/A   Overcast
7:35 AM 32.0 °F 23.0 °F 21.2 °F 64% 30.11 in 10.0 mi NW 11.5 mph - N/A   Overcast
7:55 AM 32.0 °F 23.6 °F 21.2 °F 64% 30.12 in 10.0 mi NW 10.4 mph - N/A   Overcast
8:15 AM 30.2 °F 20.8 °F 21.2 °F 69% 30.12 in 10.0 mi NW 11.5 mph - N/A   Scattered Clouds
8:35 AM 33.8 °F 25.3 °F 21.2 °F 60% 30.13 in 10.0 mi NW 11.5 mph - N/A   Clear
8:55 AM 35.6 °F 26.2 °F 23.0 °F 60% 30.14 in 10.0 mi NW 15.0 mph - N/A   Clear
9:15 AM 35.6 °F 25.9 °F 24.8 °F 65% 30.14 in 10.0 mi NW 16.1 mph - N/A   Clear
9:35 AM 37.4 °F 27.8 °F 24.8 °F 60% 30.16 in 10.0 mi NNW 17.3 mph - N/A   Clear
9:55 AM 39.2 °F 29.8 °F 24.8 °F 56% 30.16 in 10.0 mi NNW 18.4 mph 21.9 mph N/A   Clear
10:15 AM 42.8 °F 33.8 °F 26.6 °F 53% 30.17 in 10.0 mi NNW 21.9 mph - N/A   Clear
10:35 AM 42.8 °F 33.8 °F 26.6 °F 53% 30.17 in 10.0 mi NNW 21.9 mph 26.5 mph N/A   Clear
10:55 AM 44.6 °F 36.6 °F 28.4 °F 53% 30.17 in 10.0 mi North 19.6 mph - N/A   Clear
11:15 AM 46.4 °F 38.3 °F 28.4 °F 50% 30.17 in 10.0 mi North 23.0 mph 27.6 mph N/A   Clear
11:35 AM 46.4 °F 39.0 °F 28.4 °F 50% 30.16 in 10.0 mi NNE 19.6 mph - N/A   Clear
11:55 AM 46.4 °F 40.1 °F 28.4 °F 50% 30.16 in 10.0 mi NNE 15.0 mph - N/A   Clear
12:15 PM 48.2 °F - 28.4 °F 46% 30.15 in 10.0 mi NNE 13.8 mph 17.3 mph N/A   Clear
12:35 PM 50.0 °F - 28.4 °F 43% 30.14 in 10.0 mi North 13.8 mph 18.4 mph N/A   Clear
12:55 PM 51.8 °F - 28.4 °F 41% 30.14 in 10.0 mi North 17.3 mph 24.2 mph N/A   Clear
1:15 PM 51.8 °F - 30.2 °F 44% 30.14 in 10.0 mi North 18.4 mph 23.0 mph N/A   Clear
1:35 PM 53.6 °F - 28.4 °F 38% 30.14 in 10.0 mi North 16.1 mph - N/A   Clear
1:55 PM 53.6 °F - 28.4 °F 38% 30.14 in 10.0 mi North 17.3 mph 24.2 mph N/A   Clear
2:15 PM 53.6 °F - 28.4 °F 38% 30.14 in 10.0 mi North 17.3 mph 24.2 mph N/A   Clear
2:35 PM 53.6 °F - 28.4 °F 38% 30.15 in 10.0 mi NNW 13.8 mph 24.2 mph N/A   Clear
2:55 PM 53.6 °F - 28.4 °F 38% 30.15 in 10.0 mi NNW 19.6 mph 24.2 mph N/A   Clear
3:15 PM 53.6 °F - 28.4 °F 38% 30.15 in 10.0 mi North 17.3 mph 25.3 mph N/A   Clear
3:35 PM 53.6 °F - 28.4 °F 38% 30.15 in 10.0 mi NNW 17.3 mph 23.0 mph N/A   Clear
3:55 PM 53.6 °F - 28.4 °F 38% 30.16 in 10.0 mi North 16.1 mph - N/A   Clear
4:15 PM 53.6 °F - 26.6 °F 35% 30.16 in 10.0 mi NNW 13.8 mph - N/A   Clear
4:35 PM 53.6 °F - 26.6 °F 35% 30.16 in 10.0 mi NNW 13.8 mph - N/A   Clear
4:55 PM 51.8 °F - 26.6 °F 38% 30.17 in 10.0 mi NNW 11.5 mph - N/A   Clear
5:15 PM 50.0 °F - 26.6 °F 40% 30.17 in 10.0 mi NW 8.1 mph - N/A   Clear
5:35 PM 46.4 °F 41.5 °F 24.8 °F 43% 30.18 in 10.0 mi NNW 10.4 mph - N/A   Clear
5:55 PM 41.0 °F 35.2 °F 21.2 °F 45% 30.19 in 10.0 mi NW 9.2 mph - N/A   Clear
6:15 PM 39.2 °F 33.0 °F 21.2 °F 49% 30.20 in 10.0 mi NW 9.2 mph - N/A   Clear
6:35 PM 35.6 °F 28.0 °F 19.4 °F 52% 30.21 in 10.0 mi NW 10.4 mph - N/A   Clear
6:55 PM 33.8 °F 25.8 °F 19.4 °F 56% 30.21 in 10.0 mi NW 10.4 mph - N/A   Clear
7:15 PM 33.8 °F 25.8 °F 19.4 °F 56% 30.22 in 10.0 mi NW 10.4 mph - N/A   Clear
7:35 PM 32.0 °F 24.2 °F 19.4 °F 60% 30.22 in 10.0 mi NW 9.2 mph - N/A   Clear
7:55 PM 33.8 °F 25.8 °F 21.2 °F 60% 30.24 in 10.0 mi NW 10.4 mph - N/A   Clear
8:15 PM 37.4 °F 30.3 °F 23.0 °F 56% 30.25 in 10.0 mi NW 10.4 mph - N/A   Clear
8:35 PM 33.8 °F 25.8 °F 21.2 °F 60% 30.26 in 10.0 mi WNW 10.4 mph - N/A   Clear
8:55 PM 33.8 °F 24.3 °F 21.2 °F 60% 30.27 in 10.0 mi WNW 13.8 mph - N/A   Clear
9:15 PM 33.8 °F 23.9 °F 21.2 °F 60% 30.28 in 10.0 mi NW 15.0 mph - N/A   Clear
9:35 PM 35.6 °F 28.0 °F 24.8 °F 65% 30.29 in 10.0 mi NW 10.4 mph - N/A   Clear
9:55 PM 33.8 °F 25.3 °F 21.2 °F 60% 30.29 in 10.0 mi NW 11.5 mph - N/A   Clear
10:15 PM 30.2 °F 21.3 °F 19.4 °F 64% 30.30 in 10.0 mi NW 10.4 mph - N/A   Clear
10:35 PM 32.0 °F 23.0 °F 21.2 °F 64% 30.30 in 10.0 mi NW 11.5 mph - N/A   Clear
10:55 PM 33.8 °F 25.3 °F 21.2 °F 60% 30.31 in 10.0 mi NW 11.5 mph - N/A   Clear
11:15 PM 33.8 °F 25.3 °F 21.2 °F 60% 30.32 in 10.0 mi NW 11.5 mph - N/A   Clear
11:35 PM 32.0 °F 23.6 °F 21.2 °F 64% 30.32 in 10.0 mi NW 10.4 mph - N/A   Clear
11:55 PM 30.2 °F 21.9 °F 19.4 °F 64% 30.33 in 10.0 mi NW 9.2 mph - N/A   Clear